Weather History for KPKD - April, 2013

Change the Weather History Date:

Monday, April 15, 2013

  Actual Average Record
Temperature  
Mean Temperature 33 °F -  
Max Temperature 37 °F 56 °F 79 °F (2002)
Min Temperature 30 °F 30 °F 8 °F (2014)
Degree Days  
Heating Degree Days 32    
Moisture  
Dew Point 29 °F    
Average Humidity 90    
Maximum Humidity 100    
Minimum Humidity 76    
Precipitation  
Precipitation 0.05 in - - ()
Sea Level Pressure  
Sea Level Pressure 29.55 in    
Wind  
Wind Speed 11 mph (NNE)    
Max Wind Speed 20 mph    
Max Gust Speed 24 mph    
Visibility 5 miles    
Events Rain , Snow    
Averages and records for this station are not official NWS values.
T = Trace of Precipitation, MM = Missing Value Source: NWS Daily Summary

Daily Weather History Graph

Daily Weather History Graph

Search for Another Location

Airport or City:

Trip Planner

Search our weather history database for the weather conditions in past years. The results will help you decide how hot, cold, wet, or windy it might be!

Date:

Astronomy

Apr. 15, 2013 Rise Set
Actual Time 6:32 AM CDT 8:09 PM CDT
Civil Twilight 6:00 AM CDT 8:41 PM CDT
Nautical Twilight 5:21 AM CDT 9:20 PM CDT
Astronomical Twilight 4:39 AM CDT 10:02 PM CDT
Moon 9:47 AM CDT (4/15) 12:33 AM CDT (4/15)
Length of Visible Light 14h 40m
Length of Day
13h 37m
Waxing Crescent, 25% of the Moon is Illuminated
Apr 15
Waxing Crescent
Apr 18
First Quarter
Apr 25
Full
May 2
Last Quarter
May 9
New

Hourly Weather History & Observations

Time (CDT) Temp. Windchill Dew Point Humidity Pressure Visibility Wind Dir Wind Speed Gust Speed Precip Events Conditions
12:19 AM 30.2 °F 18.9 °F 28.4 °F 93% 29.43 in 2.5 mi East 16.1 mph 24.2 mph 0.00 in Snow Light Snow
12:48 AM 30.2 °F 18.9 °F 28.4 °F 93% 29.41 in 1.8 mi East 16.1 mph 21.9 mph 0.00 in Snow Light Snow
12:53 AM 30.0 °F 19.1 °F 28.0 °F 92% 29.46 in 1.8 mi East 15.0 mph 23.0 mph 0.00 in Snow Light Snow
1:05 AM 30.2 °F 19.3 °F 28.4 °F 93% 29.40 in 2.5 mi East 15.0 mph 24.2 mph 0.00 in Snow Light Snow
1:12 AM 30.2 °F 19.3 °F 28.4 °F 93% 29.40 in 3.0 mi East 15.0 mph 21.9 mph 0.00 in Snow Light Snow
1:53 AM 30.9 °F 21.2 °F 28.9 °F 92% 29.43 in 3.0 mi East 12.7 mph - 0.00 in   Overcast
2:27 AM 30.2 °F 20.2 °F 28.4 °F 93% 29.36 in 2.0 mi East 12.7 mph - 0.00 in Snow Light Snow
2:53 AM 30.9 °F 21.7 °F 28.9 °F 92% 29.40 in 2.5 mi East 11.5 mph 20.7 mph 0.00 in Snow Light Snow
3:24 AM 30.2 °F 21.3 °F 30.2 °F 100% 29.35 in 3.0 mi East 10.4 mph - 0.01 in   Overcast
3:31 AM 30.2 °F 20.8 °F 28.4 °F 93% 29.35 in 2.0 mi East 11.5 mph - 0.01 in Snow Light Snow
3:34 AM 30.2 °F 22.6 °F 28.4 °F 93% 29.35 in 1.8 mi East 8.1 mph - 0.01 in Snow Light Snow
3:42 AM 30.2 °F 21.9 °F 28.4 °F 93% 29.35 in 1.8 mi East 9.2 mph - 0.01 in Snow Light Snow
3:53 AM 30.9 °F 22.8 °F 30.0 °F 96% 29.40 in 1.5 mi East 9.2 mph - 0.01 in Snow Light Snow
4:31 AM 30.2 °F 21.9 °F 30.2 °F 100% 29.35 in 2.5 mi East 9.2 mph - 0.00 in Snow Light Snow
4:53 AM 32.0 °F 24.2 °F 30.9 °F 96% 29.40 in 2.5 mi ESE 9.2 mph - 0.01 in   Overcast
5:03 AM 32.0 °F 24.8 °F 30.2 °F 93% 29.35 in 3.0 mi ESE 8.1 mph - 0.00 in Rain Light Freezing Rain
5:27 AM 32.0 °F 24.8 °F 30.2 °F 93% 29.35 in 2.5 mi SE 8.1 mph - 0.00 in Snow Light Snow
5:35 AM 32.0 °F 24.8 °F 30.2 °F 93% 29.35 in 1.0 mi SE 8.1 mph - 0.01 in Snow Light Snow
5:49 AM 32.0 °F 23.0 °F 30.2 °F 93% 29.35 in 3.0 mi SE 11.5 mph - 0.01 in Snow Light Snow
5:53 AM 32.0 °F 23.6 °F 30.0 °F 92% 29.40 in 6.0 mi SE 10.4 mph - 0.01 in   Overcast
6:29 AM 32.0 °F 24.2 °F 28.4 °F 87% 29.35 in 10.0 mi ESE 9.2 mph - N/A   Overcast
6:53 AM 30.9 °F 25.2 °F 28.9 °F 92% 29.41 in 4.0 mi ESE 5.8 mph - 0.00 in Snow Light Snow
6:56 AM 30.2 °F 23.4 °F 28.4 °F 93% 29.36 in 4.0 mi ESE 6.9 mph - 0.00 in Snow Light Snow
7:44 AM 30.2 °F 24.3 °F 28.4 °F 93% 29.38 in 8.0 mi East 5.8 mph - 0.00 in   Overcast
7:53 AM 30.9 °F 25.2 °F 28.9 °F 92% 29.44 in 8.0 mi East 5.8 mph - 0.00 in   Overcast
8:34 AM 30.2 °F 24.3 °F 28.4 °F 93% 29.39 in 2.0 mi East 5.8 mph - N/A   Overcast
8:53 AM 30.9 °F 24.3 °F 28.9 °F 92% 29.45 in 2.5 mi East 6.9 mph - N/A   Overcast
9:04 AM 30.2 °F 24.3 °F 28.4 °F 93% 29.40 in 1.2 mi East 5.8 mph - 0.00 in Snow Light Snow
9:16 AM 30.2 °F 26.7 °F 30.2 °F 100% 29.40 in 1.0 mi ENE 3.5 mph - 0.00 in Snow Light Snow
9:41 AM 32.0 °F 27.5 °F 28.4 °F 87% 29.40 in 1.2 mi NE 4.6 mph - 0.01 in Snow Light Snow
9:53 AM 32.0 °F 27.5 °F 30.0 °F 92% 29.46 in 2.0 mi NNE 4.6 mph - 0.01 in Snow Light Snow
10:05 AM 32.0 °F 28.7 °F 28.4 °F 87% 29.41 in 3.0 mi NE 3.5 mph - 0.00 in Snow Light Snow
10:38 AM 33.8 °F - 28.4 °F 81% 29.43 in 2.5 mi Calm Calm - 0.00 in Snow Light Snow
10:53 AM 34.0 °F - 30.0 °F 85% 29.49 in 5.0 mi Calm Calm - 0.00 in Snow Light Snow
11:23 AM 33.8 °F 29.6 °F 30.2 °F 87% 29.47 in 9.0 mi WNW 4.6 mph - N/A   Overcast
11:53 AM 33.1 °F 30.0 °F 30.0 °F 89% 29.54 in 10.0 mi WNW 3.5 mph - N/A   Overcast
12:53 PM 36.0 °F 31.1 °F 28.9 °F 76% 29.57 in 10.0 mi NW 5.8 mph - 0.00 in   Overcast
1:53 PM 36.0 °F 30.3 °F 30.0 °F 79% 29.60 in 10.0 mi West 6.9 mph - N/A   Overcast
2:27 PM 33.8 °F 24.3 °F 30.2 °F 87% 29.58 in 10.0 mi West 13.8 mph - N/A   Overcast
2:53 PM 35.1 °F 25.5 °F 30.0 °F 82% 29.65 in 10.0 mi West 15.0 mph - N/A   Overcast
3:53 PM 36.0 °F 26.3 °F 30.0 °F 79% 29.68 in 10.0 mi West 16.1 mph - N/A   Overcast
4:53 PM 35.1 °F 24.8 °F 30.0 °F 82% 29.71 in 10.0 mi West 17.3 mph - 0.00 in   Overcast
5:00 PM 35.6 °F 27.1 °F 30.2 °F 81% 29.66 in 10.0 mi WNW 12.7 mph 23.0 mph N/A   Overcast
5:46 PM 35.6 °F 25.2 °F 30.2 °F 81% 29.68 in 10.0 mi NW 18.4 mph - N/A   Mostly Cloudy
5:53 PM 35.1 °F 24.1 °F 30.0 °F 82% 29.73 in 10.0 mi WNW 19.6 mph - N/A   Mostly Cloudy
6:08 PM 35.6 °F 25.9 °F 30.2 °F 81% 29.69 in 10.0 mi WNW 16.1 mph - N/A   Mostly Cloudy
6:49 PM 33.8 °F 24.8 °F 28.4 °F 81% 29.73 in 10.0 mi West 12.7 mph - N/A   Overcast
6:53 PM 34.0 °F 25.0 °F 28.9 °F 82% 29.79 in 10.0 mi West 12.7 mph - N/A   Overcast
7:23 PM 33.8 °F 23.9 °F 28.4 °F 81% 29.75 in 10.0 mi West 15.0 mph - N/A   Overcast
7:42 PM 33.8 °F 23.9 °F 30.2 °F 87% 29.77 in 1.5 mi West 15.0 mph - 0.00 in Snow Light Snow
7:50 PM 33.8 °F 23.9 °F 30.2 °F 87% 29.78 in 0.8 mi West 15.0 mph - 0.00 in Snow Light Snow
7:53 PM 33.1 °F 23.0 °F 30.0 °F 89% 29.83 in 1.2 mi West 15.0 mph - 0.00 in Snow Light Snow
8:05 PM 32.0 °F 21.6 °F 30.2 °F 93% 29.78 in 1.0 mi West 15.0 mph - 0.01 in Snow Light Snow
8:16 PM 32.0 °F 23.6 °F 30.2 °F 93% 29.79 in 2.0 mi West 10.4 mph - 0.01 in Snow Light Snow
8:22 PM 32.0 °F 23.6 °F 30.2 °F 93% 29.79 in 3.0 mi West 10.4 mph - 0.01 in Snow Light Snow
8:34 PM 32.0 °F 22.5 °F 30.2 °F 93% 29.80 in 8.0 mi West 12.7 mph - 0.01 in   Overcast
8:53 PM 32.0 °F 22.5 °F 30.0 °F 92% 29.86 in 10.0 mi West 12.7 mph - 0.01 in   Overcast
9:40 PM 32.0 °F 22.5 °F 30.2 °F 93% 29.84 in 10.0 mi West 12.7 mph - N/A   Overcast
9:50 PM 32.0 °F 23.0 °F 30.2 °F 93% 29.83 in 10.0 mi West 11.5 mph - N/A   Overcast
9:53 PM 32.0 °F 23.0 °F 30.0 °F 92% 29.89 in 9.0 mi WNW 11.5 mph - N/A   Overcast
10:05 PM 32.0 °F 23.0 °F 30.2 °F 93% 29.84 in 9.0 mi WNW 11.5 mph - N/A   Overcast
10:53 PM 32.0 °F 23.0 °F 28.9 °F 88% 29.91 in 10.0 mi WNW 11.5 mph - N/A   Overcast
11:53 PM 32.0 °F 21.6 °F 28.9 °F 88% 29.94 in 10.0 mi West 15.0 mph - N/A   Overcast